This is the latest recevied weather packets stored in our database for station/object DJ2DS-13. If no packets are shown the sender has not sent any weather packets the latest 10 day(s).
| Time | Temp. | Humidity | Pressure | Rain* | Wind** | Luminosity | Snow |
|---|---|---|---|---|---|---|---|
| 1778145599 | 13.33° C | 71% | 1014.5 hPa | 0 mm | - | 528 W/m² | - |
| 1778145298 | 13.33° C | 71% | 1014.4 hPa | 0 mm | - | 508 W/m² | - |
| 1778144996 | 13.33° C | 72% | 1014.5 hPa | 0 mm | - | 512 W/m² | - |
| 1778144696 | 13.33° C | 73% | 1014.4 hPa | 0 mm | - | 540 W/m² | - |
| 1778144396 | 13.33° C | 73% | 1014.4 hPa | 0 mm | - | 540 W/m² | - |
| 1778144096 | 13.33° C | 72% | 1014.4 hPa | 0 mm | - | 325 W/m² | - |
| 1778143794 | 13.33° C | 75% | 1014.3 hPa | 0 mm | - | 591 W/m² | - |
| 1778143495 | 12.78° C | 74% | 1014.3 hPa | 0 mm | - | 121 W/m² | - |
| 1778143193 | 13.33° C | 74% | 1014.3 hPa | 0 mm | - | 601 W/m² | - |
| 1778142892 | 12.78° C | 76% | 1014.2 hPa | 0 mm | - | 582 W/m² | - |
| 1778142591 | 12.78° C | 76% | 1014.2 hPa | 0 mm | - | 575 W/m² | - |
| 1778142290 | 12.78° C | 77% | 1014.3 hPa | 0 mm | - | 571 W/m² | - |
| 1778141990 | 12.78° C | 76% | 1014.3 hPa | 0 mm | - | 557 W/m² | - |
| 1778141690 | 12.22° C | 77% | 1014.3 hPa | 0 mm | - | 559 W/m² | - |
| 1778141390 | 12.22° C | 79% | 1014.2 hPa | 0 mm | - | 545 W/m² | - |
| 1778141087 | 12.22° C | 79% | 1014.2 hPa | 0 mm | - | 542 W/m² | - |
| 1778140790 | 12.22° C | 80% | 1014.1 hPa | 0 mm | - | 536 W/m² | - |
| 1778140488 | 11.67° C | 80% | 1014.1 hPa | 0 mm | - | 524 W/m² | - |
| 1778140187 | 11.67° C | 81% | 1014 hPa | 0 mm | - | 517 W/m² | - |
| 1778139886 | 11.67° C | 83% | 1014 hPa | 0 mm | - | 499 W/m² | - |
| 1778139586 | 11.11° C | 85% | 1013.9 hPa | 0 mm | - | 547 W/m² | - |
| 1778139284 | 11.11° C | 84% | 1014 hPa | 0 mm | - | 556 W/m² | - |
| 1778138984 | 11.11° C | 85% | 1013.9 hPa | 0 mm | - | 521 W/m² | - |
| 1778138684 | 11.11° C | 87% | 1013.9 hPa | 0 mm | - | 209 W/m² | - |
| 1778138384 | 10.56° C | 89% | 1013.9 hPa | 0 mm | - | 475 W/m² | - |
* Rain latest hour (hover to see other rain measurements)
** Current wind speed in m/s (hover to see current wind gust speed)